Location: Unspecified
(0.0000°N, 0.0000°E)
Time: 21:00:26
(UTC+00:00)

Vanguard 2 - All Passes

Search period start: 14 February 2016 00:00
Search period end: 24 February 2016 00:00
Orbit: 553 x 2942 km, 32.9° (Epoch: 14 February)

Date Brightness Start Highest point End Pass type
(mag) Time Alt. Az. Time Alt. Az. Time Alt. Az.
14 Feb - 05:56:12 10° SW 06:00:42 46° SE 06:07:29 10° ENE daylight
14 Feb - 08:04:14 10° W 08:10:02 36° NNW 08:19:10 10° NE daylight
14 Feb - 10:17:10 10° NW 10:22:52 16° N 10:30:01 10° NNE daylight
14 Feb - 12:32:46 10° NNW 12:39:27 14° N 12:46:53 10° NNE daylight
14 Feb - 14:43:54 10° NNW 14:57:02 25° NNE 15:09:50 10° ENE daylight
14 Feb - 16:54:51 10° NW 17:12:14 55° NNE 17:25:22 10° ESE daylight
14 Feb - 19:08:23 10° WNW 19:24:35 65° SW 19:34:58 10° SE visible
14 Feb - 21:27:43 10° WSW 21:34:51 17° SW 21:40:19 10° S visible
15 Feb - 06:14:20 10° SW 06:19:03 82° SE 06:26:28 10° ENE daylight
15 Feb - 08:23:40 10° WNW 08:29:10 25° NNW 08:37:10 10° NNE daylight
15 Feb - 10:38:20 10° NNW 10:42:49 13° N 10:48:02 10° NNE daylight
15 Feb - 12:52:03 10° NNW 12:59:52 15° NNE 13:08:32 10° NE daylight
15 Feb - 15:02:09 10° NNW 15:16:46 31° NNE 15:30:34 10° E daylight
15 Feb - 17:13:20 10° NW 17:31:14 69° NE 17:44:23 10° ESE daylight
15 Feb - 19:27:54 10° WNW 19:43:04 49° SW 19:53:01 10° SSE visible
15 Feb - 21:50:44 10° SW 21:53:39 11° SW 21:56:15 10° SSW visible
16 Feb - 04:26:54 10° S 04:29:26 15° SE 04:32:19 10° ESE visible
16 Feb - 06:32:49 10° WSW 06:37:35 59° NNW 06:45:03 10° NE daylight
16 Feb - 08:43:40 10° WNW 08:48:30 18° NNW 08:54:53 10° NNE daylight
16 Feb - 10:59:50 10° NNW 11:02:58 11° N 11:06:24 10° NNE daylight
16 Feb - 13:10:40 10° NNW 13:20:08 18° NNE 13:30:33 10° NE daylight
16 Feb - 15:20:21 10° NW 15:36:14 39° NNE 15:50:47 10° E daylight
16 Feb - 17:31:58 10° NW 17:50:04 86° NE 18:03:06 10° SE daylight
16 Feb - 19:47:55 10° W 20:01:34 36° SW 20:10:54 10° SSE visible
17 Feb - 04:44:10 10° SSW 04:47:46 29° SE 04:52:17 10° E visible
17 Feb - 06:51:43 10° W 06:56:20 35° NNW 07:03:16 10° NE daylight
17 Feb - 09:04:31 10° NW 09:08:01 13° NNW 09:12:10 10° NNE daylight
17 Feb - 11:20:29 10° N 11:23:13 11° N 11:26:10 10° NNE daylight
17 Feb - 13:28:56 10° NNW 13:40:08 22° NNE 13:52:22 10° ENE daylight
17 Feb - 15:38:34 10° NW 15:55:27 50° NNE 16:10:29 10° ESE daylight
17 Feb - 17:50:51 10° WNW 18:08:46 76° SW 18:21:35 10° SE daylight
17 Feb - 20:08:34 10° W 20:20:11 26° SW 20:28:32 10° SSE visible
18 Feb - 05:02:04 10° SW 05:06:05 58° SE 05:11:28 10° ENE visible
18 Feb - 07:11:04 10° WNW 07:15:18 23° NNW 07:21:08 10° NNE daylight
18 Feb - 11:39:18 10° N 11:43:31 12° NNE 11:48:08 10° NNE daylight
18 Feb - 13:47:02 10° NNW 13:59:51 27° NNE 14:13:41 10° ENE daylight
18 Feb - 15:56:53 10° NW 16:14:29 62° NE 16:29:47 10° ESE daylight
18 Feb - 18:10:05 10° WNW 18:27:23 60° SW 18:39:50 10° SE visible
18 Feb - 20:30:00 10° WSW 20:38:59 19° SW 20:45:55 10° S visible
19 Feb - 05:20:25 10° WSW 05:24:30 72° NW 05:30:07 10° NE visible
19 Feb - 07:31:10 10° NW 07:34:26 15° NNW 07:38:30 10° NNE daylight
19 Feb - 11:57:20 10° N 12:03:40 14° NNE 12:10:52 10° NE daylight
19 Feb - 14:05:06 10° NNW 14:19:17 35° NNE 14:34:24 10° E daylight
19 Feb - 16:15:22 10° NW 16:33:23 77° NE 16:48:45 10° ESE daylight
19 Feb - 18:29:44 10° WNW 18:46:01 46° SW 18:57:53 10° SSE visible
19 Feb - 20:52:36 10° WSW 20:58:03 13° SSW 21:02:41 10° S visible
20 Feb - 03:31:58 10° SSW 03:34:52 19° SE 03:37:53 10° E visible
20 Feb - 05:39:11 10° W 05:43:06 37° NNW 05:48:22 10° NE visible
20 Feb - 12:15:12 10° NNW 12:23:36 17° NNE 12:33:25 10° ENE daylight
20 Feb - 14:23:12 10° NW 14:38:29 44° NNE 14:54:32 10° E daylight
20 Feb - 16:34:02 10° NW 16:52:11 86° SW 17:07:24 10° SE daylight
20 Feb - 18:49:54 10° W 19:04:44 35° SW 19:15:48 10° SSE visible
21 Feb - 03:49:35 10° SW 03:53:19 38° SE 03:57:19 10° ENE visible
21 Feb - 05:58:29 10° WNW 06:01:52 21° NNW 06:06:10 10° NNE daylight
21 Feb - 12:33:02 10° NNW 12:43:16 22° NNE 12:55:25 10° ENE daylight
21 Feb - 14:41:22 10° NW 14:57:29 55° NE 15:14:11 10° ESE daylight
21 Feb - 16:53:00 10° WNW 17:10:55 70° SW 17:25:50 10° SE daylight
21 Feb - 19:10:41 10° W 19:23:37 27° SW 19:33:33 10° SSE visible
22 Feb - 04:07:45 10° SW 04:11:43 84° SSE 04:16:07 10° ENE visible
22 Feb - 06:18:46 10° NW 06:20:48 12° NNW 06:23:08 10° N daylight
22 Feb - 12:50:53 10° NNW 13:02:37 29° NNE 13:16:44 10° E daylight
22 Feb - 14:59:40 10° NW 15:16:21 69° NE 15:33:26 10° ESE daylight
22 Feb - 17:12:17 10° WNW 17:29:41 55° SW 17:44:04 10° SE daylight
22 Feb - 19:32:14 10° WSW 19:42:44 20° SSW 19:51:08 10° SSE visible
23 Feb - 02:19:11 10° S 02:21:49 15° SSE 02:24:13 10° ESE night (unlit)
23 Feb - 04:26:24 10° WSW 04:30:10 44° NNW 04:34:27 10° NE visible
23 Feb - 11:03:20 10° N 11:07:42 12° NNE 11:12:38 10° NE daylight
23 Feb - 13:08:47 10° NNW 13:21:44 37° NE 13:37:24 10° E daylight
23 Feb - 15:18:08 10° NW 15:35:09 85° NE 15:52:19 10° SE daylight
23 Feb - 17:32:01 10° W 17:48:30 44° SW 18:02:10 10° SSE daylight
23 Feb - 19:54:37 10° WSW 20:02:08 15° SSW 20:08:28 10° S visible
